Tracking 19242 objects as of 20-Sep-2018
HD Live streaming from Space Station
objects crossing your sky now

SL-16 DEB

Track SL-16 DEB now!
10-day predictions


NORAD ID: 36031
Int'l Code: 1996-051N
Perigee: 745.2 km
Apogee: 761.6 km
Inclination: 70.9 °
Period: 99.7 minutes
Semi major axis: 7124 km
RCS: 0.0057 m2 (small)
Launch date: September 4, 1996
Source: Commonwealth of Independent States (former USSR) (CIS)
Launch site: TYURATAM MISSILE AND SPACE COMPLEX (TTMTR)

Note: This is SATELLITE DEBRIS
aabbcc
Your satellite tracking list
Your tracking list is empty




NASA's NSSDC Master Catalog

Two Line Element Set (TLE):
1 36031U 96051N   18262.39140949 +.00001839 +00000-0 +55578-3 0  9996
2 36031 070.8524 001.4577 0011494 096.9513 327.3739 14.43714470465438
Source of the keplerian elements: AFSPC